Theta_e
308 308 308 308 308 307 307 309 309 309 309 309 308 309 308 306 304 314 318 315 315 314 314 326 327 329 325 326 323 327 331 333 333 333 332 331 331 331 331 332 331 331 332 332 330
307 308 308 308 308 308 308 308 308 308 308 308 308 303 304 306 312 313 314 314 311 310 314 322 327 325 329 328 326 327 332 333 332 332 332 332 332 332 332 332 331 331 331 331 331
306 307 307 307 308 307 308 308 308 308 308 308 308 305 302 308 314 314 318 315 310 309 311 317 324 325 326 329 329 329 331 333 333 332 332 333 333 332 332 333 331 331 331 332 331
305 306 306 306 305 306 306 308 308 308 308 308 307 307 302 312 315 319 312 310 313 318 312 313 319 327 325 326 327 331 331 332 332 332 332 332 331 332 332 332 331 330 331 332 331
304 305 306 307 307 307 307 305 305 305 306 307 308 307 308 313 314 314 312 314 314 321 319 317 318 324 327 325 326 328 329 330 331 331 331 331 331 332 332 331 331 330 331 331 331
304 305 306 306 307 306 307 306 305 303 303 306 308 308 310 310 311 311 312 312 314 316 321 319 320 322 327 328 327 327 327 327 328 328 330 331 331 331 331 331 330 330 331 331 330
305 305 305 306 306 305 306 306 304 303 303 307 308 309 311 310 308 309 310 311 312 314 316 320 320 322 325 327 328 328 329 329 329 328 328 328 330 331 330 330 330 330 330 330 329
304 304 305 306 306 306 306 303 302 303 303 308 308 309 311 307 307 307 308 309 311 312 314 315 319 322 323 325 327 328 329 331 329 328 328 329 331 330 330 330 330 329 329 328 328
304 304 305 305 305 303 302 301 304 305 307 309 310 310 311 308 309 309 308 309 311 313 313 314 316 319 321 323 327 329 331 330 329 329 329 330 331 330 329 329 330 330 329 328 329
305 304 304 304 304 303 303 303 306 306 309 310 310 311 311 308 308 309 311 310 312 314 316 316 316 318 320 323 327 327 329 328 329 328 329 330 331 330 328 328 328 329 329 329 328
305 304 304 304 304 302 305 308 310 313 312 312 309 311 309 308 307 307 308 309 313 314 317 317 317 318 319 322 323 325 326 327 327 328 328 328 329 329 328 328 328 329 330 330 328
303 302 302 302 301 303 306 308 308 307 309 309 308 308 307 307 308 308 307 309 312 315 315 318 318 319 318 320 321 322 324 326 327 328 329 329 329 329 329 329 328 328 329 329 328
303 303 303 303 300 307 306 307 306 307 309 308 308 308 309 309 310 309 309 309 309 313 315 317 319 317 317 318 321 323 324 325 326 327 328 329 329 329 328 328 327 327 327 328 329
303 304 305 304 304 306 306 306 306 306 310 307 309 309 309 311 311 312 311 310 309 309 315 315 316 318 318 318 319 322 323 324 325 327 328 327 331 328 328 327 327 327 327 328 328
303 303 303 303 305 307 306 305 305 307 310 307 308 311 309 309 309 311 312 311 308 309 310 315 316 317 319 319 319 321 322 324 325 325 326 325 327 326 326 327 327 327 327 328 328
302 302 302 307 307 306 306 306 306 311 310 307 308 309 308 308 308 309 310 312 312 310 310 313 315 316 317 318 319 319 321 323 325 325 327 325 326 327 326 326 327 328 328 328 329
302 303 305 306 307 306 306 306 311 311 307 308 308 307 308 307 306 306 307 310 313 313 311 311 314 316 317 317 319 320 323 325 327 328 329 325 326 326 326 326 327 328 328 328 332
302 305 307 306 306 306 307 310 311 306 306 305 305 305 305 305 305 305 308 309 310 312 313 310 311 314 317 318 319 320 323 325 329 328 326 325 326 326 326 327 326 327 327 334 336
305 307 307 307 306 306 308 312 307 306 306 306 307 308 307 307 306 306 306 308 313 315 321 315 311 313 316 317 318 320 323 323 326 326 328 327 326 327 328 329 327 328 327 334 337
306 307 307 306 307 308 311 307 305 305 305 306 307 309 308 307 307 308 306 313 311 311 313 318 315 313 316 317 317 320 321 323 327 328 328 327 328 326 329 328 327 329 329 332 337
307 309 307 306 307 309 311 307 305 304 305 306 308 307 307 309 308 308 309 311 311 310 311 314 322 321 317 319 318 319 321 322 324 325 327 328 326 326 329 329 328 328 331 336 337
308 309 305 306 311 311 308 306 305 305 305 305 307 308 309 308 308 308 311 311 309 310 314 315 319 327 320 319 318 319 321 323 326 327 324 325 327 328 327 329 332 332 335 337 336
309 308 306 306 311 310 307 306 306 307 305 305 306 307 308 309 310 309 309 312 310 312 316 316 320 323 328 322 318 319 320 323 325 327 325 325 325 327 329 331 331 332 335 336 336
309 309 308 308 306 307 307 308 307 306 306 306 307 307 309 308 308 310 310 310 310 311 312 313 318 323 330 322 318 320 320 323 325 327 326 325 325 328 330 331 332 334 336 335 335
309 308 306 309 308 306 306 307 308 308 308 307 308 307 308 308 307 308 309 308 310 310 311 315 318 318 322 323 323 319 320 321 324 325 326 325 323 326 329 330 330 334 335 335 335
307 306 306 307 306 305 307 308 307 307 308 308 308 308 308 308 307 309 307 309 311 311 315 314 319 316 317 321 324 320 320 320 321 323 324 323 323 323 324 326 327 331 333 335 335
306 305 306 306 306 306 308 306 307 307 308 308 307 308 310 308 308 308 308 308 309 310 311 315 319 319 321 322 324 322 322 320 321 323 323 323 323 324 324 326 330 330 331 334 335
Wind_Speed
17 16 16 16 17 16 16 16 17 19 20 20 19 20 20 20 21 15 18 14 16 20 9 10 16 21 17 19 24 18 16 18 22 22 16 15 15 11 2 11 16 11 14 14 19
17 18 17 18 17 17 17 17 17 17 19 20 20 19 19 19 22 25 27 19 23 14 16 20 18 20 17 19 19 19 17 25 23 20 18 20 20 17 17 11 17 14 20 21 17
19 19 20 21 20 19 17 17 17 16 16 17 19 19 19 17 16 12 8 28 23 21 25 23 24 21 24 23 23 25 25 25 24 23 24 25 26 21 21 21 20 17 18 20 21
17 18 19 21 23 24 24 21 18 17 17 16 16 18 15 11 9 7 8 9 4 12 27 28 25 27 25 27 26 29 30 28 28 28 27 31 28 24 25 22 22 17 18 21 21
17 17 18 20 21 22 23 23 23 22 20 17 15 14 13 11 15 13 3 9 10 10 27 25 30 29 32 28 27 32 31 31 30 30 32 28 28 30 26 25 24 21 18 21 20
17 18 20 22 23 23 23 24 23 23 23 20 16 11 14 22 12 13 15 16 14 13 19 28 30 28 32 33 33 30 31 31 32 33 30 31 33 27 27 25 26 23 23 23 22
19 20 21 22 23 24 24 25 25 25 25 21 16 13 17 22 17 17 16 19 20 18 19 21 31 28 29 33 31 31 35 33 32 30 30 23 33 33 29 25 27 26 24 24 19
22 24 25 24 23 23 25 27 29 28 25 20 15 14 14 17 21 23 24 25 24 24 24 22 18 26 27 24 28 35 30 30 33 33 29 26 34 29 26 26 26 20 22 16 19
22 23 23 22 23 26 27 29 24 19 11 8 9 15 18 2 18 15 22 21 22 25 25 23 18 20 23 24 22 26 28 36 32 29 27 30 39 29 25 25 25 29 16 18 21
24 25 24 24 25 28 32 22 19 12 3 7 14 8 16 14 4 4 5 13 16 17 20 22 13 16 19 22 27 31 33 30 33 28 28 33 35 31 20 23 25 27 25 21 23
25 26 25 25 28 30 24 23 3 8 15 13 16 13 21 16 16 17 13 13 13 15 25 24 19 27 44 36 32 30 27 33 32 27 28 31 31 24 22 26 27 26 28 24 23
27 27 28 28 30 23 12 11 8 9 13 21 23 25 28 26 21 20 18 15 17 21 22 24 31 48 26 31 31 33 31 33 29 28 23 25 28 25 24 24 26 28 27 26 24
27 27 29 29 27 13 15 10 9 12 9 23 22 19 15 13 19 19 21 21 23 22 26 31 45 26 32 32 32 32 33 28 30 24 21 22 28 28 26 27 28 28 29 28 27
28 29 27 29 16 16 13 7 10 11 7 20 11 7 10 8 12 15 16 18 24 29 24 30 34 34 32 34 35 33 29 27 25 21 18 21 23 25 18 24 23 23 22 22 21
33 30 27 14 14 9 12 10 10 5 6 5 9 7 6 8 10 4 7 14 20 24 24 31 31 35 35 42 31 36 25 25 25 21 22 24 17 18 21 22 23 24 23 21 20
36 25 13 3 9 9 12 9 9 6 6 3 1 8 6 10 12 11 9 13 13 19 28 32 27 29 40 34 29 29 27 25 20 17 20 22 20 22 21 20 20 20 16 19 19
30 9 9 7 11 14 12 10 5 7 3 6 9 12 14 17 15 17 14 15 14 15 22 30 31 28 30 32 36 27 23 16 16 17 21 18 20 23 20 18 17 16 12 5 10
19 7 4 9 12 9 12 5 6 13 14 18 18 16 19 16 20 16 12 15 19 16 19 24 26 33 27 30 37 31 28 17 28 12 16 22 18 16 17 10 9 11 12 9 8
15 5 4 9 8 7 4 6 7 14 16 14 18 16 17 12 10 9 15 16 6 8 6 17 30 28 34 25 26 40 27 32 24 20 14 13 16 15 17 14 9 10 14 13 11
15 7 4 8 8 9 5 7 9 11 12 15 17 12 15 18 10 13 12 4 5 4 9 17 21 31 27 29 32 33 29 22 21 24 15 14 10 8 2 7 13 10 13 13 14
12 2 4 8 6 5 5 10 15 14 13 10 20 18 17 12 12 15 4 6 3 12 11 21 4 16 29 33 31 26 23 30 21 18 15 11 9 2 5 2 15 14 13 15 17
8 4 6 5 3 3 6 15 13 17 12 17 12 16 16 15 14 17 6 4 2 12 13 16 6 12 28 28 30 30 27 31 16 22 17 11 4 4 9 7 5 3 11 15 17
6 3 6 2 4 7 15 16 12 12 13 14 9 14 18 15 8 6 6 8 8 9 5 8 10 13 8 19 28 32 34 26 27 16 19 9 4 8 9 6 1 3 13 15 17
5 4 2 1 2 8 14 15 14 13 16 10 17 12 13 14 3 7 9 1 7 8 16 10 14 17 6 13 22 28 33 30 28 17 18 19 12 13 14 11 10 7 12 15 17
3 6 4 6 9 12 14 15 14 14 7 17 11 12 11 15 17 14 6 12 1 5 6 5 17 25 7 23 23 25 28 24 31 20 16 18 14 14 13 13 8 8 12 15 16
5 4 8 12 8 10 11 11 14 17 10 13 12 18 15 15 15 17 16 11 6 7 5 9 10 17 17 20 32 23 31 27 23 27 18 12 18 12 4 11 7 9 10 13 15
5 6 2 10 6 8 9 13 19 18 10 11 14 15 17 14 16 18 17 15 14 13 13 8 6 6 16 20 26 14 19 27 25 24 17 12 6 8 6 7 13 9 6 10 13
Wind_Direction
359 359 355 350 346 342 339 338 337 338 339 340 337 333 326 320 315 290 247 240 213 232 195 214 208 209 219 232 227 235 254 251 253 256 263 268 238 260 159 290 301 288 291 292 293
353 351 350 348 344 342 339 336 334 335 331 332 333 332 328 326 309 276 252 238 230 217 207 214 211 207 217 219 224 227 238 242 256 265 270 286 289 294 269 248 276 270 279 266 295
349 347 345 342 341 337 334 331 331 328 322 323 323 328 328 332 291 267 226 220 220 229 229 232 230 215 229 230 220 232 240 252 256 265 280 287 274 279 277 277 276 291 293 299 297
348 343 341 339 337 335 333 330 326 320 320 317 316 320 324 315 257 78 139 113 176 233 231 233 236 232 228 233 231 242 238 245 259 268 283 280 287 272 269 275 284 287 287 289 290
345 338 336 335 331 328 326 324 321 321 316 310 307 310 321 240 246 306 277 289 290 238 221 222 224 226 232 233 241 236 242 251 256 264 269 272 275 278 271 278 283 287 286 278 275
342 340 338 334 329 324 320 318 315 311 308 305 306 296 268 266 269 272 275 269 257 257 225 231 231 229 239 239 236 243 249 253 259 264 267 268 270 265 259 266 277 275 274 271 276
342 338 335 331 327 324 318 313 309 304 299 295 286 271 269 258 275 278 271 265 261 261 263 240 240 243 241 246 248 255 256 259 256 256 261 269 271 262 268 268 271 270 269 259 267
346 339 334 329 325 320 316 313 306 300 293 286 261 249 259 263 269 261 257 258 253 246 251 267 256 249 244 261 249 250 255 257 250 250 248 246 260 265 272 271 273 272 269 269 273
337 332 330 327 324 322 320 315 308 302 278 256 215 222 263 232 236 259 251 257 261 247 236 242 261 246 232 240 253 240 242 241 250 246 250 245 255 257 264 268 262 263 269 269 271
338 336 335 330 327 326 322 306 294 280 243 218 244 237 247 256 249 283 259 264 258 243 226 217 228 234 230 219 226 228 236 244 255 255 249 247 255 259 273 269 267 277 274 261 275
340 338 337 331 327 326 326 316 231 211 220 266 291 232 293 269 277 263 262 261 238 233 221 204 212 219 220 218 235 241 246 247 250 248 238 257 269 264 251 256 264 274 279 272 269
343 340 337 332 332 323 296 323 351 306 293 280 270 261 260 271 271 260 251 237 233 229 220 214 216 222 221 229 230 243 252 252 263 264 260 260 268 271 270 281 284 279 277 277 278
342 338 332 327 326 299 322 310 319 313 279 282 266 259 248 236 244 244 233 225 238 230 225 220 226 227 222 231 234 231 235 245 254 261 263 272 273 272 268 265 263 263 264 261 259
343 335 328 323 303 325 297 348 308 328 281 265 196 206 186 226 242 225 246 234 227 237 233 234 238 235 224 230 228 236 230 242 255 265 264 251 266 259 264 266 268 273 272 268 260
343 333 320 311 308 311 340 316 325 306 278 116 119 104 259 236 326 186 250 214 243 235 232 240 229 233 235 227 227 241 234 238 239 247 260 254 260 272 265 266 265 261 256 259 252
345 335 343 351 223 300 309 307 270 239 246 50 122 346 257 261 253 269 227 207 248 241 253 244 247 234 234 242 228 238 232 241 244 249 247 243 252 267 268 276 284 284 260 250 231
348 358 2 340 333 323 308 270 253 261 353 41 342 317 285 290 280 266 261 250 231 212 236 243 245 243 239 222 238 224 217 223 226 228 244 243 246 259 274 275 279 291 256 228 109
346 332 319 331 327 318 296 276 262 348 10 348 337 313 294 277 271 270 253 261 251 269 254 227 231 233 233 230 214 222 206 210 213 216 233 224 243 257 254 254 271 264 235 133 159
338 266 283 348 336 324 280 275 345 2 343 327 315 299 279 321 304 276 258 258 331 16 285 262 233 227 226 228 235 212 212 216 245 220 245 237 224 239 250 249 246 233 187 151 162
323 293 279 335 319 283 281 296 337 354 336 325 314 305 317 318 275 270 271 320 306 273 289 281 255 222 224 219 239 223 210 205 225 239 226 242 241 238 191 201 176 197 180 156 155
287 277 58 341 307 291 303 311 331 341 312 315 312 311 311 326 299 288 230 165 242 301 274 286 285 258 233 203 214 215 202 212 219 228 229 235 249 194 199 219 181 196 165 153 161
287 284 47 334 295 284 302 328 305 293 304 305 337 300 310 305 282 290 226 344 266 313 292 272 254 263 222 210 215 215 214 203 214 208 235 213 155 82 175 241 356 327 126 153 157
295 283 141 327 348 330 322 325 338 328 312 307 294 303 306 309 306 313 340 50 356 309 316 357 235 257 222 226 206 215 209 203 220 220 205 215 185 209 142 108 86 139 142 155 155
296 302 99 26 13 316 323 312 328 332 323 316 308 310 294 300 256 275 305 92 1 296 290 296 260 254 240 217 196 210 202 203 201 217 187 221 129 146 141 115 87 122 142 155 161
303 23 6 306 327 319 300 292 317 329 324 299 298 299 295 308 311 319 298 303 203 243 251 261 248 244 258 300 281 209 208 199 193 202 217 183 197 173 145 94 90 114 159 158 161
330 352 336 300 286 310 303 309 331 325 327 312 326 318 311 295 304 302 314 312 281 244 241 281 272 262 248 287 284 191 211 197 197 208 208 171 200 205 256 106 68 94 170 170 167
345 317 335 289 284 302 308 321 310 311 303 287 302 313 304 318 317 305 299 290 278 287 297 288 326 177 242 256 268 206 211 188 195 199 210 194 204 175 145 64 44 26 14 184 176